Satellite: LO-19
Catalog number: 20442
Epoch time:      05201.62155241
Element set:    0445
Inclination:      098.2214 deg
RA of node:       233.9156 deg
Eccentricity:    0.0012874
Arg of perigee:   100.3750 deg
Mean anomaly:     259.8883 deg
Mean motion:   14.31929682 rev/day
Decay rate:        1.7e-07 rev/day^2
Epoch rev:           80900
Checksum:              286

Satellite: UO-22
Catalog number: 21575
Epoch time:      05202.54073357
Element set:     459
Inclination:      098.2454 deg
RA of node:       166.5847 deg
Eccentricity:    0.0007099
Arg of perigee:   355.2248 deg
Mean anomaly:     004.8864 deg
Mean motion:   14.39497245 rev/day
Decay rate:        5.5e-07 rev/day^2
Epoch rev:           73544
Checksum:              330

Satellite: KO-23
Catalog number: 22077
Epoch time:      05201.95943450
Element set:    0532
Inclination:      066.0892 deg
RA of node:       075.7277 deg
Eccentricity:    0.0015123
Arg of perigee:   249.1289 deg
Mean anomaly:     110.8100 deg
Mean motion:   12.86431917 rev/day
Decay rate:       -3.7e-07 rev/day^2
Epoch rev:           60793
Checksum:              293

Satellite: AO-27
Catalog number: 22825
Epoch time:      05200.89189993
Element set:    0177
Inclination:      098.2501 deg
RA of node:       194.6622 deg
Eccentricity:    0.0008961
Arg of perigee:   159.9049 deg
Mean anomaly:     200.2495 deg
Mean motion:   14.29136961 rev/day
Decay rate:       -4.1e-07 rev/day^2
Epoch rev:           61589
Checksum:              332

Satellite: IO-26
Catalog number: 22826
Epoch time:      05202.52804334
Element set:     853
Inclination:      098.2464 deg
RA of node:       197.4905 deg
Eccentricity:    0.0009369
Arg of perigee:   153.1660 deg
Mean anomaly:     207.0009 deg
Mean motion:   14.29378626 rev/day
Decay rate:        3.5e-07 rev/day^2
Epoch rev:           61619
Checksum:              307

Satellite: KO-25
Catalog number: 22828
Epoch time:      05201.53805562
Element set:    0102
Inclination:      098.2434 deg
RA of node:       196.7459 deg
Eccentricity:    0.0009928
Arg of perigee:   133.2832 deg
Mean anomaly:     226.9184 deg
Mean motion:   14.29690315 rev/day
Decay rate:        2.5e-07 rev/day^2
Epoch rev:           58428
Checksum:              312

Satellite: TO-31
Catalog number: 25396
Epoch time:      05202.84763619
Element set:     302
Inclination:      098.5275 deg
RA of node:       269.0553 deg
Eccentricity:    0.0003645
Arg of perigee:   084.8159 deg
Mean anomaly:     275.3443 deg
Mean motion:   14.23676264 rev/day
Decay rate:       -4.2e-07 rev/day^2
Epoch rev:           36534
Checksum:              314

Satellite: GO-32
Catalog number: 25397
Epoch time:      05202.45431779
Element set:     790
Inclination:      098.5174 deg
RA of node:       266.1219 deg
Eccentricity:    0.0002230
Arg of perigee:   102.1057 deg
Mean anomaly:     258.0375 deg
Mean motion:   14.23082620 rev/day
Decay rate:      -1.24e-06 rev/day^2
Epoch rev:           36520
Checksum:              272

Satellite: UO-36
Catalog number: 25693
Epoch time:      05202.83457657
Element set:     409
Inclination:      064.5568 deg
RA of node:       177.3072 deg
Eccentricity:    0.0021294
Arg of perigee:   208.3465 deg
Mean anomaly:     151.6482 deg
Mean motion:   14.78522105 rev/day
Decay rate:        2.1e-07 rev/day^2
Epoch rev:           33694
Checksum:              309

Satellite: SO-41
Catalog number: 26545
Epoch time:      05201.89411671
Element set:    0130
Inclination:      064.5566 deg
RA of node:       194.1556 deg
Eccentricity:    0.0051048
Arg of perigee:   300.6788 deg
Mean anomaly:     058.9302 deg
Mean motion:   14.80126722 rev/day
Decay rate:       1.45e-06 rev/day^2
Epoch rev:           25992
Checksum:              296

Satellite: MO-46
Catalog number: 26548
Epoch time:      05202.38451178
Element set:     238
Inclination:      064.5553 deg
RA of node:       174.7619 deg
Eccentricity:    0.0047401
Arg of perigee:   293.3378 deg
Mean anomaly:     066.2746 deg
Mean motion:   14.82764904 rev/day
Decay rate:       2.23e-06 rev/day^2
Epoch rev:           26035
Checksum:              317

Satellite: SO-42
Catalog number: 26549
Epoch time:      05201.50388316
Element set:     194
Inclination:      064.5552 deg
RA of node:       204.1591 deg
Eccentricity:    0.0052782
Arg of perigee:   304.4163 deg
Mean anomaly:     055.1966 deg
Mean motion:   14.79003515 rev/day
Decay rate:        7.3e-07 rev/day^2
Epoch rev:           25968
Checksum:              300

Satellite: NO-44
Catalog number: 26931
Epoch time:      05202.81450802
Element set:      83
Inclination:      067.0533 deg
RA of node:       138.6097 deg
Eccentricity:    0.0005672
Arg of perigee:   262.2648 deg
Mean anomaly:     097.7813 deg
Mean motion:   14.29393401 rev/day
Decay rate:        6.1e-07 rev/day^2
Epoch rev:           19871
Checksum:              300

Satellite: AO-49
Catalog number: 27605
Epoch time:      05201.75360428
Element set:    0794
Inclination:      064.5588 deg
RA of node:       033.2735 deg
Eccentricity:    0.0079534
Arg of perigee:   233.4779 deg
Mean anomaly:     125.8979 deg
Mean motion:   14.72108739 rev/day
Decay rate:        4.0e-08 rev/day^2
Epoch rev:           13879
Checksum:              345

Satellite: SO-50
Catalog number: 27607
Epoch time:      05202.64117191
Element set:     772
Inclination:      064.5592 deg
RA of node:       036.4000 deg
Eccentricity:    0.0079841
Arg of perigee:   232.0689 deg
Mean anomaly:     127.3101 deg
Mean motion:   14.70992435 rev/day
Decay rate:       -1.0e-07 rev/day^2
Epoch rev:           13880
Checksum:              277

